Change the Weather History Date:

Wednesday, October 24, 2012

  Actual Average Record
Temperature  
Mean Temperature 77 °F 78 °F  
Max Temperature 84 °F 83 °F 86 °F (1975)
Min Temperature 69 °F 72 °F 64 °F (1962)
Degree Days  
Heating Degree Days 0 0  
Month to date heating degree days 0 0  
Since 1 July heating degree days 0 0  
Cooling Degree Days 12 13  
Month to date cooling degree days 330 323  
Year to date cooling degree days 3393 3282  
Growing Degree Days 26 (Base 50)    
Moisture  
Dew Point 66 °F    
Average Humidity 71    
Maximum Humidity 84    
Minimum Humidity 58    
Precipitation  
Precipitation 0.00 in 0.14 in 0.52 in (1958)
Month to date precipitation 0.27 2.82  
Year to date precipitation 36.15 26.39  
Snow  
Snow 0.00 in - - ()
Month to date snowfall 0.0  
Since 1 July snowfall 0.0  
Since 1 September snowfall 0.0  
Snow Depth 0.00 in    
Sea Level Pressure  
Sea Level Pressure 29.89 in    
Wind  
Wind Speed 8 mph (WSW)    
Max Wind Speed 13 mph    
Max Gust Speed 15 mph    
Visibility 10 miles    
Events      
T = Trace of Precipitation, MM = Missing Value Source: NWS Daily Summary

Daily Weather History Graph

Daily Weather History Graph

Search for Another Location

Airport or City:

Trip Planner

Search our weather history database for the weather conditions in past years. The results will help you decide how hot, cold, wet, or windy it might be!

Date:

Astronomy

Oct. 24, 2012 Rise Set
Actual Time 6:37 AM HST 6:05 PM HST
Civil Twilight 6:14 AM HST 6:27 PM HST
Nautical Twilight 5:48 AM HST 6:54 PM HST
Astronomical Twilight 5:22 AM HST 7:20 PM HST
Moon 2:58 PM HST (10/24) 2:17 AM HST (10/24)
Length of Visible Light 12h 13m
Length of Day
11h 27m
Waxing Gibbous, 78% of the Moon is Illuminated
Oct 24
Waxing Gibbous
Oct 29
Full
Nov 6
Last Quarter
Nov 13
New
Nov 20
First Quarter

Hourly Weather History & Observations

Time (HST) Temp. Heat Index Dew Point Humidity Pressure Visibility Wind Dir Wind Speed Gust Speed Precip Events Conditions
12:53 AM 71.1 °F - 64.0 °F 78% 29.93 in 10.0 mi West 6.9 mph - N/A   Clear
1:53 AM 70.0 °F - 64.0 °F 81% 29.91 in 10.0 mi West 6.9 mph - N/A   Clear
2:53 AM 70.0 °F - 62.1 °F 76% 29.89 in 10.0 mi West 8.1 mph - N/A   Clear
3:53 AM 70.0 °F - 62.1 °F 76% 29.88 in 10.0 mi West 9.2 mph - N/A   Clear
4:53 AM 70.0 °F - 61.0 °F 73% 29.88 in 10.0 mi West 9.2 mph - N/A   Clear
5:53 AM 70.0 °F - 61.0 °F 73% 29.88 in 10.0 mi West 9.2 mph - N/A   Clear
6:53 AM 70.0 °F - 61.0 °F 73% 29.90 in 10.0 mi West 8.1 mph - N/A   Clear
7:53 AM 73.9 °F - 62.1 °F 66% 29.91 in 10.0 mi West 8.1 mph - N/A   Clear
8:53 AM 79.0 °F - 66.0 °F 64% 29.92 in 10.0 mi Calm Calm - N/A   Clear
9:53 AM 81.0 °F 83.8 °F 68.0 °F 65% 29.93 in 10.0 mi NE 6.9 mph - N/A   Clear
10:53 AM 82.0 °F 85.5 °F 69.1 °F 65% 29.93 in 10.0 mi East 6.9 mph - N/A   Scattered Clouds
11:53 AM 81.0 °F 84.4 °F 70.0 °F 69% 29.89 in 10.0 mi ESE 9.2 mph - N/A   Clear
12:53 PM 82.9 °F 86.5 °F 69.1 °F 63% 29.87 in 10.0 mi ESE 10.4 mph - N/A   Clear
1:53 PM 82.0 °F 84.5 °F 66.9 °F 60% 29.85 in 10.0 mi ESE 9.2 mph - N/A   Clear
2:53 PM 82.0 °F 84.9 °F 68.0 °F 62% 29.84 in 10.0 mi SSE 10.4 mph - N/A   Clear
3:53 PM 81.0 °F 83.8 °F 68.0 °F 65% 29.84 in 10.0 mi SSE 8.1 mph - N/A   Scattered Clouds
4:53 PM 80.1 °F 82.3 °F 66.9 °F 64% 29.84 in 10.0 mi South 8.1 mph - N/A   Clear
5:53 PM 79.0 °F - 68.0 °F 69% 29.86 in 10.0 mi South 4.6 mph - N/A   Clear
6:53 PM 78.1 °F - 68.0 °F 71% 29.87 in 10.0 mi SSE 4.6 mph - N/A   Partly Cloudy
7:53 PM 77.0 °F - 68.0 °F 74% 29.89 in 10.0 mi Calm Calm - N/A   Partly Cloudy
8:53 PM 75.9 °F - 68.0 °F 76% 29.92 in 10.0 mi WSW 4.6 mph - N/A   Clear
9:53 PM 77.0 °F - 68.0 °F 74% 29.93 in 10.0 mi WNW 3.5 mph - N/A   Overcast
10:53 PM 75.0 °F - 68.0 °F 79% 29.93 in 10.0 mi West 3.5 mph - N/A   Scattered Clouds
11:43 PM 75.2 °F - 68.0 °F 78% 29.94 in 10.0 mi West 5.8 mph - N/A   Overcast
11:53 PM 75.0 °F - 68.0 °F 79% 29.93 in 10.0 mi West 4.6 mph - N/A   Mostly Cloudy